This is the latest recevied weather packets stored in our database for station/object K6HN. If no packets are shown the sender has not sent any weather packets the latest 10 day(s).
| Time | Temp. | Humidity | Pressure | Rain* | Wind** | Luminosity | Snow |
|---|---|---|---|---|---|---|---|
| 1777436878 | 11.11° C | 47% | 1005.1 hPa | 0 mm | - | - | - |
| 1777435978 | 11.67° C | 47% | 1005.1 hPa | 0 mm | - | - | - |
| 1777435078 | 11.67° C | 47% | 1005.1 hPa | 0 mm | - | - | - |
| 1777434178 | 11.67° C | 46% | 1005.1 hPa | 0 mm | - | - | - |
| 1777433278 | 12.22° C | 47% | 1004.7 hPa | 0 mm | - | - | - |
| 1777428778 | 13.33° C | 47% | 1004.1 hPa | 0 mm | - | - | - |
| 1777426078 | 16.11° C | 46% | 1004.4 hPa | 0 mm | - | - | - |
| 1777422478 | 14.44° C | 45% | 1004.4 hPa | 0 mm | - | - | - |
| 1777410778 | 15° C | 45% | 1005.4 hPa | 0 mm | - | - | - |
| 1777397278 | 13.33° C | 46% | 1005.8 hPa | 0 mm | - | - | - |
| 1777395478 | 12.22° C | 45% | 1005.8 hPa | 0 mm | - | - | - |
| 1777393678 | 12.78° C | 46% | 1005.8 hPa | 0 mm | - | - | - |
| 1777386478 | 11.11° C | 46% | 1005.1 hPa | 0 mm | - | - | - |
| 1777379278 | 10.56° C | 46% | 1004.4 hPa | 0 mm | - | - | - |
| 1777377478 | 10.56° C | 46% | 1004.4 hPa | 0 mm | - | - | - |
| 1777375678 | 10.56° C | 46% | 1004.1 hPa | 0 mm | - | - | - |
| 1777373878 | 10.56° C | 46% | 1004.1 hPa | 0 mm | - | - | - |
| 1777372078 | 10.56° C | 46% | 1004.1 hPa | 0 mm | - | - | - |
| 1777371178 | 10.56° C | 45% | 1004.1 hPa | 0 mm | - | - | - |
| 1777370278 | 10.56° C | 46% | 1004.1 hPa | 0 mm | - | - | - |
| 1777368478 | 10.56° C | 46% | 1004.4 hPa | 0 mm | - | - | - |
| 1777364878 | 10.56° C | 46% | 1004.7 hPa | 0 mm | - | - | - |
| 1777363978 | 11.11° C | 46% | 1004.7 hPa | 0 mm | - | - | - |
| 1777363078 | 11.11° C | 46% | 1004.7 hPa | 0 mm | - | - | - |
| 1777362178 | 11.11° C | 46% | 1005.1 hPa | 0 mm | - | - | - |
* Rain latest hour (hover to see other rain measurements)
** Current wind speed in m/s (hover to see current wind gust speed)